Location: Unspecified
(22.6800°N, 112.2000°E)
Time: 14:13:22
(UTC+08:00)

Transit 2A - Pass Details

Date: 08 August 2021
Orbit: 594 x 964 km, 66.7° (Epoch: 21 September)

Event Time Altitude Azimuth Distance (km) Brightness Sun altitude
Rises 14:46:03 0° 336° (NNW) 3,422 9.5 58.9°
Reaches altitude 10° 14:48:26 10° 336° (NNW) 2,532 9.0 58.3°
Maximum altitude 14:54:24 85° 249° (WSW) 933 7.8 57.0°
Drops below altitude 10° 15:00:43 10° 161° (SSE) 2,679 8.8 55.5°
Sets 15:03:19 0° 160° (SSE) 3,632 9.4 54.9°
